Date String (YYYY-MM-DD hh:mm:ss) UTC,Instrument flags,absolute air pressure of the measurement (hPa),sample flow rate (lpm),inlet stack bypass flow (lpm),air temperature of the measurement (°C),ambient temperature measured by the external sensor (°C),aerosol sample conditioner tube jacket temperature (°C),OPC LED temperature (°C),internal box temperature (°C),relative humidity of the measurement (%),span deviation,mass concentration of particles derived from Lorenz-Mie calculation of OPC scattering (μg/m³),mass concentration of particles derived from Lorenz-Mie calculation of OPC scattering (μg/m³),mass concentration of particles derived from Lorenz-Mie calculation of OPC scattering (μg/m³)
DateTimeUTC,F1_M11,P_M11,Q1_M11,Q2_M11,T1_M11,T2_M11,T3_M11,T4_M11,T5_M11,U1_M11,ZSPAN_M11,X2_M11,X0_M11,X1_M11
2023-12-01 11:00:00,SystemResetWarning,0820.5,5.00,000.00,018.8,017.9,000.0,027.2,020.0,16.0,0000.8,0008.54,0013.17,0007.85
2023-12-01 11:01:00,SystemResetWarning,0820.6,5.00,000.00,018.8,017.9,000.0,027.2,020.0,16.0,0001.3,0008.57,0013.63,0007.86
2023-12-01 11:02:00,SystemResetWarning,0820.5,5.00,000.00,018.8,017.8,000.0,027.2,020.0,16.0,0001.2,0008.51,0014.38,0007.86
2023-12-01 11:03:00,SystemResetWarning,0820.6,5.00,000.00,018.8,017.8,000.0,027.2,020.0,16.0,0002.1,0008.49,0014.36,0007.85
2023-12-01 11:04:00,SystemResetWarning,0820.6,5.00,000.00,018.8,017.8,000.0,027.2,020.0,16.0,0002.4,0008.52,0014.20,0007.87
2023-12-01 11:05:00,SystemResetWarning,0820.6,5.00,000.00,018.8,017.8,000.0,027.2,020.0,15.9,0002.1,0008.54,0014.79,0007.87
2023-12-01 11:06:00,SystemResetWarning,0820.6,5.00,000.00,018.8,017.8,000.0,027.2,020.0,15.9,0001.6,0008.53,0014.92,0007.88
2023-12-01 11:07:00,SystemResetWarning,0820.6,5.00,000.00,018.8,017.8,000.0,027.2,020.0,15.9,0001.8,0008.55,0015.04,0007.88
2023-12-01 11:08:00,SystemResetWarning,0820.6,5.00,000.00,018.8,017.8,000.0,027.2,020.0,15.9,0001.6,0008.55,0015.05,0007.86
2023-12-01 11:09:00,SystemResetWarning,0820.6,5.00,000.00,018.8,017.8,000.0,027.2,020.0,15.9,0001.7,0008.52,0015.01,0007.85
2023-12-01 11:10:00,SystemResetWarning,0820.6,5.00,000.00,018.8,017.8,000.0,027.2,020.0,15.9,0001.1,0008.45,0014.86,0007.82
2023-12-01 11:11:00,SystemResetWarning,0820.6,5.00,000.00,018.8,017.8,000.0,027.2,020.0,15.9,0000.7,0008.45,0014.72,0007.79
2023-12-01 11:12:00,SystemResetWarning,0820.5,5.00,000.00,018.8,017.8,000.0,027.2,020.0,15.8,0000.6,0008.43,0014.24,0007.78
2023-12-01 11:13:00,SystemResetWarning,0820.6,5.00,000.00,018.8,017.8,000.0,027.2,020.0,15.8,0000.5,0008.45,0013.40,0007.77
2023-12-01 11:14:00,SystemResetWarning,0820.6,4.99,000.00,018.8,017.8,000.0,027.2,020.0,15.8,-000.0,0008.43,0013.09,0007.76
2023-12-01 11:15:00,SystemResetWarning,0820.6,4.99,000.00,018.8,017.8,000.0,027.2,020.0,15.8,0000.2,0008.46,0013.14,0007.75
2023-12-01 11:16:00,SystemResetWarning,0820.6,5.01,000.00,018.8,017.8,000.0,027.2,020.0,15.9,0000.4,0008.48,0012.76,0007.75
2023-12-01 11:17:00,SystemResetWarning,0820.5,5.01,000.00,018.8,017.8,000.0,027.2,020.0,15.8,0000.7,0008.50,0013.44,0007.74
2023-12-01 11:18:00,SystemResetWarning,0820.5,5.01,000.00,018.8,017.8,000.0,027.2,020.0,15.9,0000.8,0008.50,0013.52,0007.72
2023-12-01 11:19:00,SystemResetWarning,0820.5,4.99,000.00,018.8,017.8,000.0,027.2,020.0,15.9,0001.1,0008.51,0013.65,0007.71
2023-12-01 11:20:00,SystemResetWarning,0820.5,4.99,000.00,018.8,017.8,000.0,027.2,020.0,15.9,0000.7,0008.54,0013.75,0007.73
2023-12-01 11:21:00,SystemResetWarning,0820.6,5.00,000.00,018.8,017.8,000.0,027.2,020.0,15.9,0000.4,0008.57,0013.78,0007.76
2023-12-01 11:22:00,SystemResetWarning,0820.6,5.00,000.00,018.8,017.8,000.0,027.2,020.0,15.9,0000.5,0008.59,0013.83,0007.79
2023-12-01 11:23:00,SystemResetWarning,0820.6,5.00,000.00,018.8,017.8,000.0,027.2,020.0,15.9,0001.0,0008.62,0015.27,0007.81
2023-12-01 11:24:00,SystemResetWarning,0820.5,5.00,000.00,018.8,017.8,000.0,027.2,020.0,15.9,0000.2,0008.62,0015.51,0007.82
2023-12-01 11:25:00,SystemResetWarning,0820.5,5.00,000.00,018.7,017.8,000.0,027.2,020.0,15.9,0000.0,0008.65,0015.86,0007.83
2023-12-01 11:26:00,SystemResetWarning,0820.5,5.00,000.00,018.7,017.8,000.0,027.2,020.0,15.9,0000.0,0008.62,0015.79,0007.84
2023-12-01 11:27:00,SystemResetWarning,0820.6,5.00,000.00,018.8,017.8,000.0,027.2,020.0,15.9,0000.1,0008.59,0015.45,0007.84
2023-12-01 11:28:00,SystemResetWarning,0820.5,5.00,000.00,018.8,017.8,000.0,027.2,020.0,15.9,0000.6,0008.58,0014.50,0007.87
2023-12-01 11:29:00,SystemResetWarning,0820.6,5.00,000.00,018.8,017.8,000.0,027.2,020.0,15.9,0000.7,0008.57,0015.09,0007.89
2023-12-01 11:30:00,SystemResetWarning,0820.6,5.00,000.00,018.8,017.8,000.0,027.2,020.0,16.0,0000.9,0008.56,0015.60,0007.92
2023-12-01 11:31:00,SystemResetWarning,0820.6,5.00,000.00,018.8,017.8,000.0,027.2,020.0,16.0,0001.1,0008.54,0016.33,0007.92
2023-12-01 11:32:00,SystemResetWarning,0820.6,5.00,000.00,018.8,017.8,000.0,027.2,020.0,16.0,0002.0,0008.54,0016.38,0007.91
2023-12-01 11:33:00,SystemResetWarning,0820.6,5.00,000.00,018.8,017.8,000.0,027.2,020.0,16.0,0002.1,0008.53,0016.81,0007.93
2023-12-01 11:34:00,SystemResetWarning,0820.6,5.00,000.00,018.8,017.8,000.0,027.2,020.0,16.0,0001.6,0008.51,0016.03,0007.93
2023-12-01 11:35:00,SystemResetWarning,0820.5,5.00,000.00,018.8,017.8,000.0,027.2,020.0,16.0,0001.5,0008.52,0016.32,0007.94
2023-12-01 11:36:00,SystemResetWarning,0820.5,5.00,000.00,018.8,017.8,000.0,027.2,020.0,16.0,0001.2,0008.54,0016.32,0007.95
2023-12-01 11:37:00,SystemResetWarning,0820.5,5.00,000.00,018.8,017.8,000.0,027.2,020.0,16.0,0000.8,0008.56,0016.39,0007.95
2023-12-01 11:38:00,SystemResetWarning,0820.5,5.00,000.00,018.8,017.8,000.0,027.2,020.0,16.0,0000.4,0008.58,0016.80,0007.97
2023-12-01 11:39:00,SystemResetWarning,0820.6,5.00,000.00,018.8,017.8,000.0,027.2,020.0,16.0,0000.3,0008.57,0017.04,0007.96
2023-12-01 11:40:00,SystemResetWarning,0820.6,4.99,000.00,018.8,017.8,000.0,027.2,020.0,16.0,0000.5,0008.63,0016.95,0007.99
2023-12-01 11:41:00,SystemResetWarning,0821.0,5.00,000.00,018.8,017.8,000.0,027.2,020.0,16.0,0000.2,0008.67,0016.30,0008.01
2023-12-01 11:42:00,SystemResetWarning,0820.8,5.00,000.00,018.8,017.8,000.0,027.2,020.0,16.0,0000.1,0008.72,0015.66,0008.02
2023-12-01 11:43:00,SystemResetWarning,0820.9,5.00,000.00,018.8,017.8,000.0,027.2,020.0,16.0,0000.2,0008.79,0016.03,0008.03
2023-12-01 11:44:00,SystemResetWarning,0820.7,5.00,000.00,018.8,017.8,000.0,027.2,020.0,16.0,0000.6,0008.82,0016.04,0008.04
2023-12-01 11:45:00,SystemResetWarning,0820.8,5.00,000.00,018.8,017.8,000.0,027.2,020.0,16.0,0001.2,0008.86,0016.07,0008.04
2023-12-01 11:46:00,SystemResetWarning,0820.9,5.01,000.00,018.8,017.8,000.0,027.2,020.0,16.0,0001.2,0008.90,0015.80,0008.05
2023-12-01 11:47:00,SystemResetWarning,0820.8,5.00,000.00,018.8,017.8,000.0,027.2,020.0,16.0,0001.4,0008.91,0015.15,0008.07
2023-12-01 11:48:00,SystemResetWarning,0820.6,5.00,000.00,018.8,017.7,000.0,027.2,020.2,16.0,0002.1,0008.96,0016.80,0008.08
2023-12-01 11:49:00,SystemResetWarning,0820.8,5.00,000.00,018.9,018.0,000.0,027.2,020.6,16.0,0002.1,0008.96,0017.61,0008.09
2023-12-01 11:50:00,SystemResetWarning,0820.7,4.99,000.00,019.0,018.7,000.0,027.2,020.9,16.0,0002.2,0008.97,0017.27,0008.09
2023-12-01 11:51:00,SystemResetWarning,0820.7,4.99,000.00,019.1,019.1,000.0,027.2,021.0,15.9,0001.9,0008.93,0017.15,0008.07
2023-12-01 11:52:00,SystemResetWarning,0821.0,5.00,000.00,019.1,019.0,000.0,027.2,020.7,15.8,0001.4,0008.92,0017.17,0008.06
2023-12-01 11:53:00,SystemResetWarning,0820.8,5.00,000.00,019.1,018.9,000.0,027.3,020.6,15.8,0001.3,0008.90,0017.12,0008.06
2023-12-01 11:54:00,SystemResetWarning,0820.9,5.00,000.00,019.1,018.8,000.0,027.3,020.4,15.8,0001.5,0008.88,0016.86,0008.07
2023-12-01 11:55:00,SystemResetWarning,0820.8,5.01,000.00,019.1,018.7,000.0,027.3,020.4,15.7,0001.1,0008.87,0017.39,0008.07
2023-12-01 11:56:00,SystemResetWarning,0820.8,5.00,000.00,019.1,018.5,000.0,027.3,020.3,15.8,0000.3,0008.87,0016.98,0008.07
2023-12-01 11:57:00,SystemResetWarning,0820.9,5.00,000.00,019.0,018.4,000.0,027.3,020.2,15.8,-000.0,0008.82,0017.03,0008.07
2023-12-01 11:58:00,SystemResetWarning,0821.0,5.00,000.00,019.0,018.3,000.0,027.3,020.1,15.8,0000.1,0008.82,0017.10,0008.06
2023-12-01 11:59:00,SystemResetWarning,0820.8,5.00,000.00,019.0,018.2,000.0,027.3,020.1,15.9,-000.1,0008.80,0015.41,0008.06
